Tracking 19283 objects as of 17-Nov-2018
HD Live streaming from Space Station
objects crossing your sky now

FENGYUN 1C DEB

Track FENGYUN 1C DEB now!
10-day predictions


NORAD ID: 30516
Int'l Code: 1999-025AJE
Perigee: 824.5 km
Apogee: 846.1 km
Inclination: 99.0 °
Period: 101.5 minutes
Semi major axis: 7206 km
RCS: 0.0157 m2 (small)
Launch date: May 10, 1999
Source: People's Republic of China (PRC)
Launch site: Taiyaun Space Center, China (TSC)

Note: This is SATELLITE DEBRIS
aabbcc
Your satellite tracking list
Your tracking list is empty




NASA's NSSDC Master Catalog

Two Line Element Set (TLE):
1 30516U 99025AJE 18320.74986900  .00000827  00000-0  41625-3 0  9995
2 30516  98.9767 351.3047 0014951 182.8779 242.2742 14.19164632609575
Source of the keplerian elements: AFSPC